User: anonymous   Login
Location: Newark
(50.8086°N, 4.3114°E)
Time: 20:09:27
(UTC+00:00)
Language:

Gurwin Techsat 1B - Orbit

View from above orbital plane
View from above orbital plane
View from above satellite
View from above satellite

Ground track
Ground track

The orbit data is extracted from the following two-line orbital elements,

1 25397U 98043D   20020.45140114 -.00000025 +00000-0 +84766-5 0  9998
2 25397 098.7134 323.2103 0002204 111.4024 248.7390 14.23677965118356
Epoch (UTC): 20 January 2020 10:50:01
Eccentricity: 0.0002204
inclination: 98.7134°
perigee height: 811 km
apogee height: 814 km
right ascension of ascending node: 323.2103°
argument of perigee: 111.4024°
revolutions per day: 14.23677965
mean anomaly at epoch: 248.7390°
orbit number at epoch: 11835

The dashed part of the orbit path shows where the satellite is in the earth's shadow,  

DLR